This is the latest recevied weather packets stored in our database for station/object KC5TIL. If no packets are shown the sender has not sent any weather packets the latest 10 day(s).
| Time | Temp. | Humidity | Pressure | Rain* | Wind** | Luminosity | Snow |
|---|---|---|---|---|---|---|---|
| 1777921338 | 27.22° C | 58% | 1011 hPa | 0 mm | - | 763 W/m² | - |
| 1777921035 | 27.22° C | 58% | 1011 hPa | 0 mm | - | 599 W/m² | - |
| 1777920732 | 27.22° C | 57% | 1011.1 hPa | 0 mm | - | 786 W/m² | - |
| 1777920428 | 27.22° C | 58% | 1011.2 hPa | 0 mm | - | 701 W/m² | - |
| 1777920123 | 27.22° C | 59% | 1011.1 hPa | 0 mm | - | 737 W/m² | - |
| 1777919820 | 26.67° C | 56% | 1011.4 hPa | 0 mm | - | 750 W/m² | - |
| 1777919517 | 26.67° C | 58% | 1011.2 hPa | 0 mm | - | 382 W/m² | - |
| 1777919215 | 27.22° C | 59% | 1011.5 hPa | 0 mm | - | 756 W/m² | - |
| 1777918912 | 27.22° C | 58% | 1011.5 hPa | 0 mm | - | 764 W/m² | - |
| 1777918610 | 27.78° C | 58% | 1011.6 hPa | 0 mm | - | 740 W/m² | - |
| 1777918307 | 26.67° C | 58% | 1011.7 hPa | 0 mm | - | 809 W/m² | - |
| 1777918006 | 26.67° C | 60% | 1011.8 hPa | 0 mm | - | 752 W/m² | - |
| 1777917704 | 26.11° C | 59% | 1011.9 hPa | 0 mm | - | 734 W/m² | - |
| 1777917401 | 25.56° C | 60% | 1011.8 hPa | 0 mm | - | 747 W/m² | - |
| 1777917097 | 26.67° C | 58% | 1011.9 hPa | 0 mm | - | 674 W/m² | - |
| 1777916796 | 26.67° C | 57% | 1012.2 hPa | 0 mm | - | 397 W/m² | - |
| 1777916492 | 26.11° C | 59% | 1012 hPa | 0 mm | - | 678 W/m² | - |
| 1777916189 | 25.56° C | 58% | 1012.1 hPa | 0 mm | - | 764 W/m² | - |
| 1777915887 | 26.11° C | 60% | 1012.3 hPa | 0 mm | - | 748 W/m² | - |
| 1777915583 | 25.56° C | 60% | 1012.4 hPa | 0 mm | - | 746 W/m² | - |
| 1777915280 | 26.11° C | 58% | 1012.3 hPa | 0 mm | - | 763 W/m² | - |
| 1777914976 | 25.56° C | 61% | 1012.4 hPa | 0 mm | - | 778 W/m² | - |
| 1777914674 | 25.56° C | 60% | 1012.7 hPa | 0 mm | - | 785 W/m² | - |
| 1777914369 | 25° C | 61% | 1012.5 hPa | 0 mm | - | 781 W/m² | - |
| 1777914067 | 25° C | 60% | 1012.8 hPa | 0 mm | - | 790 W/m² | - |
* Rain latest hour (hover to see other rain measurements)
** Current wind speed in m/s (hover to see current wind gust speed)